{"data":{"norad_id":51637,"epoch":"2026-09-19T23:48:59.859072Z","epoch_age_seconds":69894,"freshness":"FRESH","line1":"1 51637U 22012R   26262.99235948  .00000043  00000+0  76905-4 0  9993","line2":"2 51637  87.9199 347.0527 0002206  97.2005 262.9378 13.17650401226205","mean_motion":13.17650401,"eccentricity":0.0002206,"inclination_deg":87.9199,"raan_deg":347.0527,"arg_perigee_deg":97.2005,"mean_anomaly_deg":262.9378,"bstar":7.6905e-5,"rev_number":22620,"period_min":109.28543708613,"perigee_km":1192.0375436681,"apogee_km":1195.3782416348,"semimajor_km":7571.8448926514,"source":"CELESTRAK","updated_at":"2026-09-20T09:00:44.710755Z"}}